{"data":{"norad_id":66085,"intl_designator":"2025-235AD","name":"STARLINK-35370","alt_names":[],"object_type":"PAYLOAD","status":"ACTIVE","operator":null,"country":"US","launch_date":"2025-10-19","launch_site_code":"AFETR","launch_vehicle":null,"mission":null,"orbit_class":"UNKNOWN","rcs_meters":null,"size_class":null,"mass_kg":null,"dimensions":null,"purposes":["comms"],"wikipedia_slug":null,"has_3d_model":false,"image_url":null,"decayed_at":null,"tle_current":{"epoch":"2026-05-25T00:24:19.702080Z","epoch_age_seconds":83654,"freshness":"FRESH","line1":"1 66085U 25235AD  26145.01689470  .00011292  00000+0  39245-3 0  9995","line2":"2 66085  53.1600 251.0046 0002398  90.4017 269.7258 15.30229521 34571","mean_motion":15.30229521,"eccentricity":0.0002398,"inclination_deg":53.16,"raan_deg":251.0046,"arg_perigee_deg":90.4017,"mean_anomaly_deg":269.7258,"bstar":0.00039245,"rev_number":3457,"period_min":94.103530237671,"perigee_km":473.48351376202,"apogee_km":476.77033914114,"semimajor_km":6853.2639264516,"source":"CELESTRAK","updated_at":"2026-05-25T13:38:21.026235Z"}}}